Location: Newark
(43.6583°N, 1.6617°E)
Time: 00:21:11
(UTC+00:00)

Transit 4A - Pass Details

Date: 27 August 2019
Orbit: 865 x 980 km, 66.8° (Epoch: 20 September)

Event Time Altitude Azimuth Distance (km) Brightness Sun altitude
Rises 16:50:01 0° 208° (SSW) 3,658 11.5 18.6°
Reaches altitude 10° 16:52:34 10° 208° (SSW) 2,719 10.9 18.1°
Maximum altitude 16:58:58 87° 120° (ESE) 986 8.4 17.0°
Drops below altitude 10° 17:05:23 10° 32° (NNE) 2,723 10.1 15.8°
Sets 17:07:56 0° 32° (NNE) 3,664 10.7 15.4°
